This is the latest recevied weather packets stored in our database for station/object KR4KUV. If no packets are shown the sender has not sent any weather packets the latest 10 day(s).
| Time | Temp. | Humidity | Pressure | Rain* | Wind** | Luminosity | Snow |
|---|---|---|---|---|---|---|---|
| 1787441139 | 25.56° C | 89% | 1015.3 hPa | 0 mm | - | 40 W/m² | - |
| 1787440836 | 25° C | 88% | 1015.4 hPa | 0 mm | - | 44 W/m² | - |
| 1787440535 | 25° C | 89% | 1015.1 hPa | 0 mm | - | 32 W/m² | - |
| 1787440232 | 25° C | 88% | 1015.1 hPa | 0 mm | - | 19 W/m² | - |
| 1787439928 | 25° C | 88% | 1015.2 hPa | 0 mm | - | 13 W/m² | - |
| 1787439623 | 25.56° C | 87% | 1015 hPa | 0 mm | - | 16 W/m² | - |
| 1787439319 | 25.56° C | 86% | 1015 hPa | 0 mm | - | 19 W/m² | - |
| 1787439014 | 25.56° C | 86% | 1015.3 hPa | 0 mm | - | 18 W/m² | - |
| 1787438709 | 26.11° C | 84% | 1015.3 hPa | 0 mm | - | 17 W/m² | - |
| 1787438408 | 26.11° C | 84% | 1015.1 hPa | 0 mm | - | 17 W/m² | - |
| 1787438103 | 26.67° C | 82% | 1015 hPa | 0 mm | - | 21 W/m² | - |
| 1787437799 | 27.22° C | 80% | 1015 hPa | 0 mm | - | 30 W/m² | - |
| 1787437495 | 27.78° C | 79% | 1015.2 hPa | 0 mm | - | 97 W/m² | - |
| 1787437191 | 27.78° C | 79% | 1015.2 hPa | 0 mm | - | 165 W/m² | - |
| 1787436887 | 27.78° C | 79% | 1015.1 hPa | 0 mm | - | 184 W/m² | - |
| 1787436583 | 27.78° C | 78% | 1015.1 hPa | 0 mm | - | 203 W/m² | - |
| 1787436283 | 27.78° C | 78% | 1015.1 hPa | 0 mm | - | 229 W/m² | - |
| 1787435978 | 27.78° C | 77% | 1015.2 hPa | 0 mm | - | 232 W/m² | - |
| 1787435674 | 27.78° C | 77% | 1014.8 hPa | 0 mm | - | 246 W/m² | - |
| 1787435370 | 27.78° C | 77% | 1014.7 hPa | 0 mm | - | 261 W/m² | - |
| 1787435066 | 28.89° C | 76% | 1014.8 hPa | 0 mm | - | 284 W/m² | - |
| 1787434761 | 28.89° C | 76% | 1014.9 hPa | 0 mm | - | 297 W/m² | - |
| 1787434458 | 28.89° C | 76% | 1014.8 hPa | 0 mm | - | 314 W/m² | - |
| 1787434153 | 28.33° C | 76% | 1015 hPa | 0 mm | - | 328 W/m² | - |
| 1787433849 | 28.33° C | 76% | 1015.1 hPa | 0 mm | - | 384 W/m² | - |
* Rain latest hour (hover to see other rain measurements)
** Current wind speed in m/s (hover to see current wind gust speed)